This is the latest recevied weather packets stored in our database for station/object KJ5FA-10. If no packets are shown the sender has not sent any weather packets the latest 10 day(s).
| Time | Temp. | Humidity | Pressure | Rain* | Wind** | Luminosity | Snow |
|---|---|---|---|---|---|---|---|
| 1777679675 | 17.78° C | 56% | 1016.6 hPa | 0 mm | - | - | - |
| 1777678775 | 17.78° C | 55% | 1016 hPa | 0 mm | - | - | - |
| 1777677875 | 18.33° C | 54% | 1016 hPa | 0 mm | - | - | - |
| 1777676975 | 18.33° C | 53% | 1015.8 hPa | 0 mm | - | - | - |
| 1777676076 | 18.89° C | 50% | 1015.6 hPa | 0 mm | - | - | - |
| 1777674277 | 20° C | 41% | 1015.6 hPa | 0 mm | - | - | - |
| 1777673375 | 20.56° C | 42% | 1015.6 hPa | 0 mm | - | - | - |
| 1777672475 | 20.56° C | 41% | 1015.3 hPa | 0 mm | - | - | - |
| 1777671575 | 20.56° C | 41% | 1015.3 hPa | 0 mm | - | - | - |
| 1777670675 | 20° C | 40% | 1015.4 hPa | 0 mm | - | - | - |
| 1777669775 | 20° C | 40% | 1015.4 hPa | 0 mm | - | - | - |
| 1777668875 | 20.56° C | 42% | 1015.7 hPa | 0 mm | - | - | - |
| 1777667977 | 21.11° C | 41% | 1015.9 hPa | 0 mm | - | - | - |
| 1777667075 | 20.56° C | 41% | 1016.1 hPa | 0 mm | - | - | - |
| 1777666175 | 20.56° C | 41% | 1016.8 hPa | 0 mm | - | - | - |
| 1777665275 | 20.56° C | 44% | 1017 hPa | 0 mm | - | - | - |
| 1777664375 | 20.56° C | 43% | 1017.3 hPa | 0 mm | - | - | - |
| 1777663476 | 20.56° C | 43% | 1017.3 hPa | 0 mm | - | - | - |
| 1777662575 | 20° C | 45% | 1017.8 hPa | 0 mm | - | - | - |
| 1777661676 | 19.44° C | 46% | 1018.3 hPa | 0 mm | - | - | - |
| 1777660776 | 18.89° C | 45% | 1018.3 hPa | 0 mm | - | - | - |
| 1777659875 | 18.89° C | 46% | 1018.4 hPa | 0 mm | - | - | - |
| 1777658976 | 18.89° C | 46% | 1018.6 hPa | 0 mm | - | - | - |
| 1777658076 | 18.89° C | 45% | 1018.9 hPa | 0 mm | - | - | - |
| 1777654475 | 18.33° C | 44% | 1019.7 hPa | 0 mm | - | - | - |
* Rain latest hour (hover to see other rain measurements)
** Current wind speed in m/s (hover to see current wind gust speed)